Lapse_Rate
1.7 2.8 2.4 1.2 1.2 1.1 1.0 1.4 2.4 4.0 3.7 1.8 2.2 0.7 0.8 0.6 -0.2 0.1 -0.7 -0.6 -0.4 0.1 0.4 0.9 0.6 1.0 0.6 0.7 0.5 0.5 0.6 0.7 0.7 0.8 1.0 1.1 1.3 1.7
1.8 2.0 2.1 1.8 1.5 1.1 1.7 2.0 1.7 2.6 3.9 2.4 2.5 1.6 1.0 1.1 0.4 -0.2 -0.6 -1.3 -0.6 -0.3 0.1 0.5 0.3 0.2 0.2 0.2 0.1 -0.1 -0.2 -0.2 0.1 0.4 0.5 0.4 0.7 1.0
2.1 2.0 2.0 1.8 1.7 1.6 2.2 1.8 2.5 2.7 3.5 2.7 2.1 1.7 1.7 1.0 0.5 -0.0 -0.7 -0.1 -0.2 -1.1 -0.4 -0.1 -0.2 -0.2 -0.2 -0.2 -0.4 -0.7 -0.8 -1.0 -1.0 -0.9 -0.8 -0.6 -0.4 -0.0
2.1 2.3 2.2 2.9 1.9 1.9 1.9 2.2 2.1 1.9 3.1 3.1 2.2 2.5 2.4 1.8 0.9 0.5 0.2 0.3 -0.4 -0.6 -0.5 -0.3 -0.5 -0.5 -0.5 -0.5 -0.8 -0.8 -1.2 -1.5 -1.7 -1.8 -1.6 -1.6 -1.3 -0.9
2.1 2.0 2.0 2.1 2.2 2.1 2.0 2.1 2.3 3.1 2.5 2.0 2.0 1.6 1.3 1.2 1.0 0.7 0.8 -0.0 -0.1 -0.4 -0.6 -0.7 -0.7 -0.5 -0.6 -0.6 -0.9 -0.9 -0.9 -1.6 -1.5 -1.6 -1.9 -1.6 -1.4 -1.3
2.5 2.4 2.3 2.4 2.5 2.6 2.9 2.7 2.7 2.6 2.1 2.3 2.2 2.1 1.7 1.8 1.4 1.0 0.5 0.4 -0.4 -0.4 -1.1 -1.0 -0.9 -0.4 -0.5 -0.9 -0.7 -1.3 -1.6 -1.3 -0.9 -1.0 -1.3 -1.2 -1.1 -0.9
2.9 3.0 3.1 2.9 3.3 3.6 4.3 3.6 3.2 3.1 2.9 3.0 2.9 2.8 2.9 2.8 2.2 1.6 0.9 0.1 0.4 -0.1 -0.2 0.4 0.2 -0.5 -0.8 -0.5 -0.8 -0.9 -0.4 -0.4 -0.6 -0.2 0.1 0.2 -0.1 -0.6
3.4 3.2 2.9 3.0 3.1 3.8 4.1 4.5 4.0 3.7 3.7 3.7 3.6 3.4 3.3 3.0 3.0 2.9 2.3 1.9 1.4 1.0 1.5 -1.1 -0.2 -0.1 -0.1 -0.3 -0.2 -0.3 -0.6 -0.3 0.1 0.7 0.4 0.5 0.4 0.4
3.8 3.7 3.8 4.4 3.3 3.6 4.0 4.5 4.3 5.0 5.3 4.8 4.1 4.3 3.8 4.1 3.8 3.8 3.8 3.2 2.8 1.7 2.1 0.4 0.8 0.4 0.1 0.1 -0.2 -0.2 -0.0 0.7 0.6 0.9 1.8 2.3 2.1 1.7
4.3 4.2 3.9 4.0 3.7 3.9 4.3 4.3 4.3 4.4 4.2 4.7 4.8 4.4 4.3 3.9 4.3 4.2 3.3 3.4 3.5 3.5 3.5 3.6 2.3 1.1 0.8 0.6 -0.1 -0.0 1.1 1.5 2.4 2.5 1.6 1.3 1.2 0.9
4.3 4.0 4.1 4.1 4.1 5.0 5.0 4.3 4.3 4.2 4.3 4.4 4.5 4.6 4.5 4.8 4.8 4.4 4.1 4.1 4.5 4.4 4.3 3.6 4.8 2.1 0.8 0.8 0.9 1.2 1.7 1.6 1.2 1.9 2.2 1.7 1.3 1.1
4.9 4.7 4.8 4.6 4.8 5.5 5.5 4.4 3.9 4.6 4.3 3.9 3.9 3.8 3.5 3.1 3.3 3.3 4.0 4.1 4.7 5.0 4.8 4.6 5.0 5.1 3.8 2.9 2.0 1.4 1.0 0.9 1.3 1.0 0.8 0.8 1.0 1.5
4.6 4.9 5.2 5.8 6.4 6.7 6.5 4.7 4.5 4.9 3.9 3.7 3.7 3.8 3.6 3.6 3.3 3.1 3.2 3.6 3.9 4.8 5.3 5.5 4.7 5.4 7.4 7.4 3.2 1.3 0.9 1.6 1.4 0.8 0.9 1.3 1.5 1.7
3.2 3.7 5.1 6.1 6.5 6.8 6.6 4.9 5.3 4.6 3.8 3.7 3.9 4.2 4.1 4.0 3.6 3.1 2.9 3.2 3.4 3.5 3.8 4.6 4.9 5.1 5.6 5.4 7.1 4.5 2.2 1.6 2.5 2.2 2.2 1.9 1.0 1.2
4.4 3.4 5.1 6.5 7.4 7.3 6.7 5.1 4.0 3.6 3.4 3.4 3.6 3.6 3.2 3.2 3.2 3.5 3.4 3.2 3.0 3.3 3.8 4.1 5.1 5.7 5.6 4.8 5.2 3.2 4.7 3.2 2.1 3.5 3.4 2.9 2.2 1.5
7.2 6.3 7.0 7.5 7.3 5.1 4.6 3.1 2.9 3.3 3.4 3.4 3.2 3.0 3.1 3.5 3.7 3.5 3.3 3.6 3.2 4.0 4.1 4.2 4.5 5.0 4.7 4.5 4.8 3.2 3.7 5.5 4.6 3.8 4.5 3.6 2.7 2.6
5.2 4.1 7.0 7.0 5.1 2.4 0.7 0.2 0.5 0.8 2.0 1.3 2.8 3.1 3.3 3.3 3.4 3.5 3.7 3.8 4.2 4.3 4.1 4.6 4.4 4.1 4.1 4.1 3.3 4.2 5.2 5.0 6.1 6.2 5.0 3.2 1.5 2.3
7.0 4.2 6.1 5.5 4.8 3.0 1.9 0.7 -0.3 1.5 0.2 0.3 0.7 1.6 2.9 3.0 3.4 3.9 4.0 4.2 4.2 4.5 4.8 5.6 5.2 4.2 4.0 4.1 5.1 5.7 6.3 6.5 5.9 4.8 4.6 3.8 1.2 2.1
6.7 3.9 4.9 4.9 4.0 2.7 2.1 1.1 1.4 -0.2 -2.7 -0.5 0.7 0.8 0.9 1.5 2.6 3.6 3.8 4.0 4.2 4.5 5.5 5.6 5.4 5.6 5.6 6.0 5.3 5.3 6.6 4.3 4.5 2.9 4.7 4.8 4.1 2.0
7.7 5.2 4.1 2.3 2.2 2.9 1.1 0.2 -0.8 -2.2 -1.2 -0.5 -0.2 0.3 0.6 1.9 2.6 3.1 2.8 2.3 3.8 4.5 4.4 5.1 5.2 5.0 5.4 6.8 6.0 3.2 3.5 4.1 4.6 4.7 4.2 4.2 3.3 1.7
6.8 4.9 3.7 2.8 2.7 2.3 1.1 0.2 -0.0 -0.8 -0.3 -0.3 0.1 0.6 0.9 1.8 2.7 2.3 2.1 4.8 5.2 3.2 2.9 4.1 4.7 4.3 4.3 3.6 3.6 4.4 4.3 4.4 4.3 4.5 3.8 4.0 4.0 3.3
5.1 4.0 3.2 3.2 2.9 2.5 1.6 0.9 0.2 2.3 1.1 0.1 0.9 1.3 1.4 1.2 2.3 2.1 2.0 2.4 3.0 3.0 2.8 3.0 3.5 3.6 3.6 4.9 4.7 4.2 3.6 3.2 2.0 3.2 3.9 5.1 5.4 7.1
5.1 4.4 3.5 3.4 2.8 2.3 1.9 1.5 1.2 1.8 1.5 1.2 1.3 1.7 1.0 1.9 1.7 2.0 2.1 1.5 1.6 2.4 3.5 2.9 3.5 4.1 3.3 3.1 3.6 3.1 2.3 2.5 2.6 1.3 1.6 3.3 4.2 5.3
Wind_Speed
5 3 3 4 4 4 3 1 1 2 4 1 1 1 4 7 10 9 10 12 12 13 15 14 13 14 14 14 14 14 14 15 15 15 16 16 17 17
3 4 3 2 3 3 3 2 2 1 2 1 1 1 3 5 9 10 8 10 9 13 13 13 14 15 16 16 15 15 16 16 16 16 17 16 18 19
3 4 4 3 3 3 2 3 2 1 0 1 1 3 2 7 8 11 10 9 9 13 13 15 16 16 16 15 14 14 15 16 18 19 19 19 19 20
3 3 3 2 3 2 2 2 2 2 1 1 1 2 2 5 7 9 9 8 12 11 15 16 13 12 11 13 16 19 18 18 18 17 18 18 18 19
3 3 3 2 2 1 1 1 1 1 1 2 1 1 2 2 6 5 8 10 10 13 11 7 8 12 14 19 20 17 17 16 17 16 16 18 19 19
2 2 2 1 1 0 1 1 2 1 1 1 1 2 2 3 4 6 7 6 8 10 3 8 14 17 18 16 15 15 15 15 17 19 19 20 20 21
0 0 1 2 4 3 2 2 1 1 0 1 1 2 3 5 6 5 6 8 9 1 5 12 15 15 11 12 13 13 15 19 19 20 19 17 15 15
2 2 2 5 3 2 2 1 2 1 2 2 3 4 4 5 4 6 6 8 5 0 10 11 13 6 11 12 13 20 21 19 16 12 12 16 19 22
5 3 3 3 0 2 4 4 4 6 5 3 5 4 5 4 5 7 7 6 7 10 10 8 6 7 12 15 19 17 12 8 11 14 18 22 24 24
6 5 5 4 4 5 4 4 4 4 2 2 4 5 7 8 6 6 6 8 8 8 7 5 5 8 13 17 11 8 8 12 19 22 21 25 26 26
6 8 6 5 7 8 5 4 4 4 5 6 7 9 10 10 8 7 5 6 6 4 3 4 5 9 8 6 8 8 16 20 20 22 26 26 26 25
7 8 13 9 9 9 5 4 5 5 5 3 3 4 6 7 7 3 3 4 5 5 2 6 6 6 6 4 9 17 18 20 21 25 26 23 21 19
7 7 6 12 12 11 9 4 5 4 2 2 3 3 3 3 1 3 4 4 5 6 7 6 6 7 5 7 8 15 16 18 21 20 19 19 22 21
6 6 7 13 13 12 8 5 6 1 0 2 3 2 2 2 4 7 7 8 9 11 14 12 6 8 9 11 8 8 13 19 18 13 17 20 24 23
7 11 17 18 16 12 10 6 3 2 2 2 2 1 2 4 6 6 7 9 10 11 10 9 8 8 8 10 11 12 11 10 18 8 14 13 10 18
9 9 12 13 14 8 4 3 2 2 3 3 2 1 2 2 3 4 4 5 6 4 9 9 11 10 9 10 10 12 11 8 10 11 11 12 18 19
7 3 6 5 6 5 3 3 3 2 3 2 2 1 1 2 2 3 3 5 5 6 6 7 12 14 15 13 11 10 9 10 10 11 13 12 12 13
6 4 7 6 7 7 6 5 3 5 3 3 2 1 0 1 2 3 3 4 5 6 7 7 8 8 8 6 11 8 8 9 11 12 12 11 13 12
6 7 8 7 8 6 6 5 4 4 3 3 3 2 1 1 1 2 3 3 4 5 7 7 7 7 9 10 7 11 8 12 11 11 11 11 12 14
7 8 8 7 7 7 6 5 4 5 4 3 3 3 2 1 0 1 2 2 4 6 6 6 6 6 8 9 10 10 16 10 11 11 12 11 14 32
6 7 7 7 7 7 6 6 6 6 5 5 3 3 3 2 1 1 2 6 7 3 6 7 7 15 10 10 7 9 9 15 16 12 12 11 12 10
5 7 8 7 7 7 7 7 6 7 6 5 4 4 3 3 2 2 2 3 3 4 5 7 8 6 4 6 10 13 9 10 21 16 19 16 8 6
6 6 7 7 7 7 7 7 7 7 6 5 5 4 4 3 3 3 3 3 3 4 5 5 5 5 5 6 10 8 14 13 8 11 9 12 16 22
Wind_Direction
93 80 91 76 45 31 33 349 246 197 211 132 157 88 31 25 21 1 4 354 354 351 345 337 338 328 330 322 322 320 317 314 311 310 309 309 305 304
89 103 96 65 92 86 69 7 19 347 176 208 167 103 20 17 4 355 352 350 341 342 333 325 326 322 318 314 314 313 312 312 312 311 312 311 308 306
84 96 87 79 68 76 91 114 56 23 140 135 341 346 14 357 350 350 357 340 331 333 323 316 315 312 311 312 313 316 314 312 309 308 308 306 305 302
89 104 93 96 82 62 67 61 110 117 185 262 353 335 293 338 345 343 345 331 325 318 315 311 313 313 316 316 313 309 309 309 306 306 304 303 301 301
69 67 71 86 115 130 97 122 135 121 171 164 287 271 275 336 348 346 326 320 321 317 316 322 326 315 311 310 307 308 310 312 309 307 307 305 303 302
38 34 29 6 350 334 195 198 158 167 142 16 335 308 317 339 337 331 331 330 325 324 336 323 313 308 310 308 307 311 311 310 309 308 306 305 305 305
139 325 196 254 272 258 263 259 244 248 303 318 306 310 328 334 340 331 321 325 325 285 335 321 317 314 310 310 309 311 310 307 305 304 305 305 308 314
215 222 285 291 288 298 324 332 195 239 312 311 308 297 308 316 324 322 326 336 337 5 336 309 311 301 307 308 304 310 310 307 307 305 319 314 311 309
216 217 234 227 245 289 298 303 305 293 290 295 281 291 303 313 309 312 315 316 298 305 314 300 313 300 311 308 311 312 311 318 334 323 318 314 313 313
219 216 225 237 234 233 240 257 267 275 272 281 275 286 279 287 288 309 315 303 295 290 291 281 322 308 313 309 316 323 326 326 326 320 318 318 316 313
227 221 225 237 247 249 241 256 268 266 276 292 302 303 304 306 316 318 312 316 313 295 327 292 318 319 310 300 317 324 323 321 324 321 319 319 315 314
236 226 233 231 242 247 236 236 270 282 282 291 298 314 319 317 320 328 317 308 311 306 107 336 330 354 319 312 328 325 320 320 317 317 315 315 314 313
240 231 225 232 240 236 235 222 247 281 274 297 304 309 319 336 43 338 317 298 290 274 308 336 308 317 299 307 312 307 308 316 315 313 313 311 311 310
232 231 235 237 239 234 232 210 259 130 249 277 283 293 312 320 321 315 304 286 273 275 291 293 282 300 298 301 296 314 312 308 308 316 314 314 310 307
217 225 230 235 237 233 222 220 183 205 234 240 251 278 321 318 314 315 313 309 300 295 297 299 292 297 291 287 292 299 310 312 308 303 316 313 308 307
272 231 226 222 217 185 158 160 188 199 223 229 221 239 282 303 318 335 324 333 323 328 326 319 312 304 294 286 291 290 297 296 307 304 306 301 300 300
246 240 211 203 162 158 150 165 167 182 191 193 211 244 290 323 336 340 342 337 329 327 327 328 322 308 291 283 283 282 293 296 294 304 312 306 302 304
211 199 204 189 186 181 182 180 189 189 181 177 175 195 258 325 328 352 347 343 336 334 328 332 330 326 321 285 258 290 304 305 309 313 310 307 304 304
216 195 205 199 194 186 183 185 190 192 160 181 179 179 180 217 5 11 358 347 345 338 333 333 332 332 328 319 293 290 323 309 310 308 308 305 297 297
228 194 200 187 187 192 186 184 178 166 178 180 181 180 178 166 152 343 350 322 326 335 331 333 334 334 319 312 306 300 299 295 306 306 307 303 293 291
200 193 192 185 184 187 185 183 177 177 180 172 184 183 178 187 212 247 291 322 341 332 324 325 321 313 305 298 287 293 305 302 299 299 303 301 302 300
192 189 184 178 172 173 174 175 179 184 171 180 182 185 186 199 232 261 285 306 313 307 294 300 308 314 312 310 306 306 303 307 313 304 298 278 283 298
204 185 180 174 166 163 164 171 176 179 181 178 181 186 182 211 223 245 274 265 282 302 319 316 320 324 300 294 305 303 298 310 318 325 319 313 304 298